Date,TemperatureHighF,TemperatureAvgF,TemperatureLowF,DewpointHighF,DewpointAvgF,DewpointLowF,HumidityHigh,HumidityAvg,HumidityLow,PressureMaxIn,PressureMinIn,WindSpeedMaxMPH,WindSpeedAvgMPH,GustSpeedMaxMPH,PrecipitationSumIn
2013-3-1,30.4,26.7,23.5,27.0,23.8,20.0,92,89,86,30.34,30.20,14,3,14,0.01
2013-3-2,31.6,25.4,20.2,24.0,20.2,13.4,89,81,72,30.40,30.22,10,2,10,0.00
2013-3-3,42.3,33.5,22.1,31.8,25.5,16.9,81,73,65,30.23,29.76,11,2,11,0.00
2013-3-4,50.4,40.5,34.6,36.6,30.3,26.2,78,67,59,29.96,29.68,19,2,19,0.01
2013-3-5,36.2,31.9,26.4,30.1,21.5,15.7,83,65,56,30.37,29.96,22,5,22,0.04
2013-3-6,37.8,28.9,23.0,23.7,18.1,14.0,68,64,56,30.46,30.31,17,2,17,0.00
2013-3-7,46.0,34.3,23.5,32.5,24.3,14.9,76,67,57,30.33,30.16,13,2,13,0.00
2013-3-8,55.0,45.3,36.3,42.2,34.6,26.8,73,66,61,30.22,29.97,12,2,12,0.00
2013-3-9,57.6,51.9,45.4,54.9,45.9,37.4,94,80,67,29.98,29.57,11,2,11,0.52
2013-3-10,54.2,40.5,26.7,52.5,39.1,23.6,99,95,88,29.90,29.53,13,3,20,0.02
2013-3-11,37.2,29.0,24.8,28.1,23.1,20.7,88,79,66,30.06,29.87,11,2,12,0.00
2013-3-12,46.7,36.7,29.8,32.7,23.9,18.2,74,60,45,30.36,30.03,22,3,22,0.00
2013-3-13,45.2,33.5,23.9,26.5,20.6,15.2,70,59,45,30.50,30.34,10,1,10,0.00
2013-3-14,71.3,49.5,32.5,44.2,31.6,20.8,64,51,32,30.34,30.05,16,2,16,0.00
2013-3-15,79.6,58.2,36.5,51.3,40.4,27.0,74,54,30,30.08,29.64,14,3,14,0.00
2013-3-16,61.2,44.1,36.9,43.5,33.7,26.3,77,67,51,30.06,29.66,22,7,22,0.00
2013-3-17,36.9,33.8,32.2,31.5,27.8,23.3,91,79,66,30.06,29.77,17,5,17,0.08
2013-3-18,52.9,41.4,34.0,41.5,31.1,16.0,95,71,38,30.07,29.75,18,3,18,0.01
2013-3-19,39.1,32.8,25.6,34.4,22.5,10.2,87,66,45,30.28,30.06,7,0,8,0.08
2013-3-20,38.2,30.4,21.4,30.8,17.7,5.2,89,61,37,30.42,30.15,20,4,20,0.01
2013-3-21,28.5,26.0,19.9,24.6,15.8,6.7,85,66,52,30.15,29.95,14,2,14,0.00
2013-3-22,32.8,30.8,28.5,30.9,28.3,24.6,93,90,85,30.03,29.96,10,2,10,0.01
2013-3-23,37.5,33.4,31.8,32.2,30.1,28.0,93,88,75,30.04,29.85,17,4,17,0.06
2013-3-24,32.4,28.1,22.7,30.6,26.5,19.4,95,93,88,30.11,29.81,22,2,22,0.13
2013-3-25,31.6,26.4,19.5,26.5,22.5,16.3,90,85,80,30.37,30.09,18,3,18,0.09
2013-3-26,36.0,27.5,20.3,25.7,20.5,13.5,86,75,62,30.45,30.33,8,1,8,0.03
2013-3-27,48.5,35.8,19.9,34.8,26.4,12.7,78,69,58,30.35,30.22,13,2,13,0.00
2013-3-28,62.7,50.0,36.6,43.2,36.8,28.3,73,61,48,30.24,30.12,9,1,9,0.00
2013-3-29,66.6,54.3,42.5,48.5,40.1,33.7,82,60,40,30.19,30.07,12,2,13,0.00
2013-3-30,66.3,56.4,50.7,58.2,49.6,40.6,90,78,68,30.07,29.84,15,1,15,0.12
2013-3-31,64.5,54.5,41.8,50.7,41.6,25.6,90,65,36,29.95,29.89,17,2,17,0.01